Regional Weather Roundup
Issued by NWS

Home | Current Version | Previous Version | Text Only | Print | Product List | Glossary Off
Versions: 1 2 3 4 5 6 7 8 9 10 11 12 13 14 15 16 17 18 19 20 21 22 23 24 25 26 27 28 29 30 31 32 33 34 35 36 37 38 39 40 41 42 43 44 45 46 47 48 49 50

000
ASUS43 KOAX 280702
RWRNE

WEATHER ROUNDUP FOR NEBRASKA
NATIONAL WEATHER SERVICE OMAHA NE
100 AM CST SUN DEC 28 2014

NOTES: SATELLITE DATA IS BEING USED TO AUGMENT CLOUD COVER ABOVE
       12000 FEET.
       "FAIR" INDICATES FEW OR NO CLOUDS BELOW 12,000 FEET WITH NO
       SIGNIFICANT WEATHER AND/OR OBSTRUCTIONS TO VISIBILITY.

  * THESE STATIONS DO NOT REPORT WEATHER SUCH AS RAIN...SNOW OR FOG.

NEZ001>004-019>022-054>056-280800-
NEBRASKA PANHANDLE

CITY           SKY/WX    TMP DP  RH WIND       PRES   REMARKS
SCOTTSBLUFF    MOCLDY     0  -5  79 N5        30.04F WCI -10
ALLIANCE       MOCLDY     0  -4  83 W7        30.02F WCI -13
CHADRON        PTCLDY     4   0  83 SW7       30.04F WCI  -8
KIMBALL        MOCLDY    -2  -7  78 SW10      30.00F WCI -19
SIDNEY         MOCLDY    -1  -7  75 W9        30.05F WCI -16
$$

NEZ057>060-069>072-079>082-280800-
SOUTHWEST NEBRASKA

CITY           SKY/WX    TMP DP  RH WIND       PRES   REMARKS
NORTH PLATTE   PTCLDY     3  -1  83 NW8       30.11F WCI -10
IMPERIAL       MOCLDY    -1  -5  82 CALM      30.12F
LEXINGTON      PTCLDY     2  -1  85 NW3       30.14F
MCCOOK         MOCLDY     7   4  87 W10       30.16F WCI  -8
$$

NEZ005>010-023>029-035>040-094-280800-
NORTH CENTRAL NEBRASKA

CITY           SKY/WX    TMP DP  RH WIND       PRES   REMARKS
VALENTINE      PTCLDY     2  -2  83 W7        30.06F WCI -11
AINSWORTH      CLEAR     10   4  78 W7        30.05F WCI  -2
BROKEN BOW     CLEAR     19   9  65 W13       30.09F WCI   6
ORD            PTCLDY     9   5  84 W3        30.11F
$$

NEZ041-046>049-061>064-073>077-083>087-280800-
SOUTH CENTRAL NEBRASKA

CITY           SKY/WX    TMP DP  RH WIND       PRES   REMARKS
GRAND ISLAND     N/A     14   9  80 SW12      30.15F WCI   0
AURORA         CLEAR     15  11  84 W10       30.15F WCI   2
HASTINGS       CLEAR     20  12  71 W13       30.15F WCI   7
HEBRON         CLEAR     17  13  83 W3        30.21F
HOLDREGE       PTCLDY    19  12  76 W10       30.15F WCI   7
KEARNEY *      PTCLDY    16   9  73 SW7       30.15F WCI   6
YORK           CLEAR     14  10  85 SW9       30.16F WCI   2
$$

NEZ011>018-030>034-042>045-280800-
NORTHEAST NEBRASKA

CITY           SKY/WX    TMP DP  RH WIND       PRES   REMARKS
NORFOLK        PTCLDY    10   6  84 CALM      30.11F
ALBION         PTCLDY    13   8  78 NW7       30.11F WCI   3
BLAIR          CLEAR     19  15  84 SW8       30.16F WCI   9
COLUMBUS *     CLEAR     16   7  67 W8        30.15F WCI   5
FREMONT        CLEAR     18  14  84 CALM      30.17F
TEKAMAH        PTCLDY    13   9  84 CALM      30.18F
WAYNE          PTCLDY    11   8  85 SW5       30.12F WCI   3
$$

NEZ050>053-065>068-078-088>093-280800-
SOUTHEAST NEBRASKA

CITY           SKY/WX    TMP DP  RH WIND       PRES   REMARKS
LINCOLN        CLEAR     19  13  77 SW6       30.20F WCI  11
OMAHA EPPLEY   CLEAR     18  14  84 CALM      30.20F
BEATRICE       CLEAR     15  11  85 W5        30.20F WCI   7
FALLS CITY     CLEAR     19  15  84 SW7       30.23F WCI  10
NEBRASKA CITY  CLEAR     16  13  88 SW8       30.19F WCI   6
$$

NEZ044-045-051>053-067-280800-
OMAHA AREA

CITY           SKY/WX    TMP DP  RH WIND       PRES   REMARKS
OMAHA EPPLEY   CLEAR     18  14  84 CALM      30.20F
BLAIR          CLEAR     19  15  84 SW8       30.16F WCI   9
FREMONT        CLEAR     18  14  84 CALM      30.17F
OFFUTT AFB     CLEAR     18  15  87 S2        30.19F
WAHOO          FAIR      17  12  82 CALM      30.18F
$$


USA.gov is the U.S. government's official web portal to all federal, state and local government web resources and services.